Lancaster, OH

5:35 PM EDT on April 19, 2018 (GMT -0400)
Fairfield County

Weather History for KLHQ - October, 2014

Change the Weather History Date:

Thursday, October 16, 2014

  Actual Average Record
Temperature  
Mean Temperature 58 °F -  
Max Temperature 64 °F 68 °F 85 °F (1947)
Min Temperature 53 °F 40 °F 25 °F (1937)
Degree Days  
Heating Degree Days 8    
Growing Degree Days 8 (Base 50)    
Moisture  
Dew Point 52 °F    
Average Humidity 87    
Maximum Humidity 97    
Minimum Humidity 67    
Precipitation  
Precipitation 0.26 in - - ()
Sea Level Pressure  
Sea Level Pressure 29.77 in    
Wind  
Wind Speed 1 mph (West)    
Max Wind Speed 10 mph    
Max Gust Speed -    
Visibility 8 miles    
Events Rain    
Averages and records for this station are not official NWS values.
T = Trace of Precipitation, MM = Missing Value Source: NWS Daily Summary

Daily Weather History Graph

Daily Weather History Graph

Search for Another Location

Airport or City:

Astronomy

Oct. 16, 2014 Rise Set
Actual Time 7:41 AM EDT 6:49 PM EDT
Civil Twilight 7:14 AM EDT 7:17 PM EDT
Nautical Twilight 6:43 AM EDT 7:48 PM EDT
Astronomical Twilight 6:12 AM EDT 8:19 PM EDT
Moon 12:52 AM EDT (10/16) 2:59 PM EDT (10/16)
Length of Visible Light 12h 02m
Length of Day
11h 07m
Last Quarter, 42% of the Moon is Illuminated
Oct 16
Last Quarter
Oct 23
New
Oct 30
First Quarter
Nov 6
Full
Nov 14
Last Quarter

Hourly Weather History & Observations

Time (EDT) Temp. Dew Point Humidity Pressure Visibility Wind Dir Wind Speed Gust Speed Precip Events Conditions
12:53 AM 55.0 °F 51.1 °F 86% 29.75 in 10.0 mi Calm Calm - 0.01 in Rain Light Rain
1:20 AM 55.0 °F 52.0 °F 89% 29.75 in 10.0 mi Calm Calm - 0.01 in Rain Light Rain
1:53 AM 55.0 °F 51.1 °F 86% 29.75 in 10.0 mi Calm Calm - 0.01 in Rain Light Rain
2:53 AM 54.0 °F 52.0 °F 93% 29.74 in 10.0 mi Calm Calm - 0.03 in Rain Light Rain
3:34 AM 55.0 °F 52.0 °F 89% 29.74 in 9.0 mi Calm Calm - 0.00 in   Overcast
3:53 AM 54.0 °F 52.0 °F 93% 29.73 in 8.0 mi Calm Calm - 0.00 in Rain Light Rain
4:03 AM 54.0 °F 53.1 °F 97% 29.73 in 6.0 mi Calm Calm - 0.00 in Rain Light Rain
4:25 AM 54.0 °F 52.0 °F 93% 29.74 in 5.0 mi Calm Calm - 0.02 in Rain Light Rain
4:42 AM 54.0 °F 52.0 °F 93% 29.74 in 3.0 mi Calm Calm - 0.04 in Rain Light Rain
4:50 AM 53.6 °F 51.8 °F 94% 29.74 in 2.5 mi SE 3.5 mph - 0.05 in Rain Light Rain
4:53 AM 54.0 °F 52.0 °F 93% 29.73 in 2.5 mi Calm Calm - 0.05 in Rain Light Rain
5:10 AM 54.0 °F 52.0 °F 93% 29.74 in 2.5 mi Calm Calm - 0.01 in Rain Light Rain
5:20 AM 54.0 °F 52.0 °F 93% 29.74 in 4.0 mi SE 3.5 mph - 0.02 in Rain Light Rain
5:53 AM 54.0 °F 52.0 °F 93% 29.74 in 4.0 mi Calm Calm - 0.07 in Rain Rain
5:59 AM 54.0 °F 52.0 °F 93% 29.74 in 4.0 mi Calm Calm - 0.01 in Rain Rain
6:26 AM 54.0 °F 52.0 °F 93% 29.75 in 8.0 mi Calm Calm - 0.05 in Rain Light Rain
6:53 AM 54.0 °F 52.0 °F 93% 29.75 in 8.0 mi Calm Calm - 0.06 in Rain Light Rain
7:53 AM 54.0 °F 52.0 °F 93% 29.75 in 9.0 mi Calm Calm - 0.00 in   Overcast
8:26 AM 53.1 °F 51.1 °F 93% 29.76 in 6.0 mi Calm Calm - N/A   Scattered Clouds
8:53 AM 53.1 °F 51.1 °F 93% 29.77 in 4.0 mi Calm Calm - N/A   Partly Cloudy
9:03 AM 54.0 °F 53.1 °F 97% 29.77 in 5.0 mi Calm Calm - N/A   Mostly Cloudy
9:15 AM 55.0 °F 53.1 °F 93% 29.78 in 9.0 mi Calm Calm - N/A   Overcast
9:53 AM 55.9 °F 53.1 °F 90% 29.78 in 10.0 mi Calm Calm - N/A   Overcast
10:06 AM 55.9 °F 52.0 °F 87% 29.78 in 10.0 mi Calm Calm - N/A   Overcast
10:27 AM 55.9 °F 52.0 °F 87% 29.78 in 10.0 mi WNW 3.5 mph - N/A   Overcast
10:45 AM 55.9 °F 52.0 °F 87% 29.78 in 10.0 mi Calm Calm - N/A   Overcast
10:53 AM 57.0 °F 52.0 °F 83% 29.78 in 10.0 mi Calm Calm - N/A   Overcast
11:23 AM 57.0 °F 52.0 °F 83% 29.79 in 10.0 mi NNW 4.6 mph - N/A   Overcast
11:40 AM 55.9 °F 52.0 °F 87% 29.79 in 2.0 mi NW 3.5 mph - 0.02 in Rain Rain
11:48 AM 55.4 °F 53.6 °F 94% 29.79 in 3.0 mi NW 3.5 mph - 0.02 in Rain Light Rain
11:53 AM 55.9 °F 53.1 °F 90% 29.79 in 4.0 mi NW 3.5 mph - 0.02 in Rain Light Rain
12:04 PM 57.0 °F 53.1 °F 87% 29.79 in 10.0 mi Calm Calm - 0.00 in   Overcast
12:26 PM 57.9 °F 54.0 °F 87% 29.79 in 10.0 mi Calm Calm - 0.00 in   Overcast
12:43 PM 59.0 °F 54.0 °F 83% 29.80 in 10.0 mi NNW 3.5 mph - 0.00 in   Overcast
12:53 PM 59.0 °F 54.0 °F 83% 29.79 in 10.0 mi Variable 3.5 mph - 0.00 in   Overcast
1:03 PM 60.1 °F 53.1 °F 78% 29.78 in 10.0 mi Calm Calm - N/A   Mostly Cloudy
1:19 PM 59.0 °F 52.0 °F 78% 29.78 in 10.0 mi NW 5.8 mph - N/A   Mostly Cloudy
1:26 PM 60.1 °F 53.1 °F 78% 29.78 in 10.0 mi Variable 5.8 mph - N/A   Mostly Cloudy
1:53 PM 60.1 °F 52.0 °F 75% 29.78 in 10.0 mi West 6.9 mph - N/A   Overcast
2:53 PM 62.1 °F 51.1 °F 67% 29.76 in 10.0 mi West 10.4 mph - N/A   Mostly Cloudy
3:53 PM 57.9 °F 53.1 °F 84% 29.78 in 4.0 mi WNW 4.6 mph - 0.01 in Rain Light Rain
4:53 PM 61.0 °F 54.0 °F 78% 29.77 in 10.0 mi NW 4.6 mph - 0.00 in   Overcast
5:53 PM 62.1 °F 53.1 °F 72% 29.77 in 10.0 mi Calm Calm - N/A   Overcast
6:53 PM 57.9 °F 54.0 °F 87% 29.78 in 10.0 mi Calm Calm - N/A   Overcast
7:53 PM 57.9 °F 51.1 °F 78% 29.79 in 10.0 mi WSW 3.5 mph - N/A   Mostly Cloudy
8:53 PM 55.0 °F 48.9 °F 80% 29.81 in 10.0 mi WSW 4.6 mph - N/A   Partly Cloudy
9:53 PM 57.0 °F 51.1 °F 81% 29.81 in 10.0 mi WSW 6.9 mph - N/A   Overcast
10:53 PM 55.9 °F 51.1 °F 84% 29.81 in 10.0 mi SW 6.9 mph - N/A   Mostly Cloudy
11:53 PM 55.9 °F 52.0 °F 87% 29.81 in 10.0 mi SW 9.2 mph - N/A   Partly Cloudy